Wind_Speed
43 43 45 45 44 43 42 42 42 42 43 45 47 47 48 48 48 47 47 46 45 45 44 42 39 36 34 33 32 30 28 24 22 19 16 14 12 11 10 8 6 5 4 5 7 9 10 12 14 16 16 17 20 22 23 25 26 27 27 27 28 28 27 28 28 28 28 29 29 28 26 25 23 23 22 21 20 19 18 18 19 19 19 19 20 20
43 44 45 45 45 44 43 42 42 42 43 45 47 48 48 49 49 49 49 47 46 46 46 44 40 37 34 33 33 33 30 28 27 24 20 17 15 13 12 10 9 7 5 5 7 8 9 9 11 14 14 15 17 19 22 24 25 26 26 27 27 28 28 28 28 29 29 29 29 29 28 26 25 24 23 22 21 20 19 18 18 19 19 19 19 19
43 43 44 46 46 47 46 45 43 42 42 44 46 48 49 50 51 51 50 49 48 48 48 46 42 38 36 34 34 35 34 32 31 28 23 19 17 16 14 13 12 10 8 6 7 8 9 8 9 11 13 13 15 17 20 22 24 25 26 26 27 27 28 28 28 29 29 30 30 30 30 29 27 25 24 24 23 22 20 19 19 19 19 19 19 18
43 44 45 46 47 49 48 48 47 45 44 44 46 48 49 51 52 52 51 51 50 50 50 48 44 40 37 36 35 36 38 37 34 31 26 21 19 18 17 16 15 13 11 9 8 8 9 9 9 10 11 12 14 15 17 20 23 24 25 25 26 27 27 28 28 28 29 30 31 30 30 30 29 27 26 25 24 23 22 21 20 19 19 19 19 19
44 45 46 46 48 49 50 50 50 49 47 47 47 49 50 52 53 53 52 52 52 51 50 48 45 42 39 37 37 37 41 42 38 34 29 24 22 22 20 18 16 15 13 11 10 10 9 9 9 9 11 12 12 14 16 18 21 23 24 24 25 26 27 27 27 28 29 30 31 31 31 31 30 29 28 27 26 25 24 23 22 21 20 19 19 19
45 45 46 47 48 50 51 52 53 52 51 50 50 51 51 53 54 54 53 53 52 51 50 48 45 42 39 38 38 39 42 44 42 37 31 28 26 24 23 22 20 18 16 14 12 11 10 9 8 8 10 11 12 13 14 16 19 21 23 23 24 25 26 27 27 27 28 29 30 31 31 32 31 31 30 29 28 27 26 25 24 23 22 21 20 20
45 45 45 47 49 50 52 53 54 54 53 53 53 52 52 53 55 55 53 53 53 52 52 51 47 44 41 40 41 41 42 45 45 40 34 30 28 27 26 25 23 20 19 16 14 13 12 11 9 8 8 10 11 12 13 15 17 19 21 22 23 24 25 27 27 27 27 28 29 30 31 31 31 31 31 30 29 29 28 26 25 25 24 23 23 22
43 44 44 46 48 50 52 53 54 55 55 55 55 52 51 53 54 55 54 54 54 54 54 54 52 49 46 44 44 43 42 45 46 42 37 33 30 29 28 28 26 23 21 19 17 16 14 13 11 9 8 8 9 11 12 14 15 17 18 20 21 22 24 26 27 28 27 27 28 29 30 31 31 31 31 31 30 30 29 28 27 26 26 26 25 25
41 42 42 44 47 49 52 53 54 55 55 56 56 55 53 53 54 54 55 55 55 55 56 57 56 55 53 50 49 47 45 45 45 43 40 36 33 32 31 30 28 26 24 22 20 19 17 15 13 11 10 9 8 10 11 12 13 14 15 17 18 19 21 23 26 27 28 28 28 28 28 30 30 30 30 30 31 31 30 30 29 28 27 27 27 27
38 39 40 42 44 47 50 52 54 56 55 56 58 58 56 54 53 53 54 55 56 57 58 59 59 60 60 57 53 49 46 44 43 42 40 38 37 35 33 32 31 29 27 25 23 21 19 17 16 13 12 11 9 8 10 11 12 13 13 15 16 17 18 19 22 24 26 27 28 27 27 28 29 29 29 29 30 30 31 30 30 30 29 29 28 28
34 36 37 39 41 44 48 50 53 55 55 57 59 58 57 56 54 54 55 56 57 59 60 61 62 63 64 63 59 53 48 45 44 44 41 40 39 37 35 35 34 32 30 28 26 24 22 20 18 16 14 12 10 8 8 10 11 11 12 13 14 15 16 17 18 20 22 24 26 27 27 27 27 28 28 29 29 29 30 30 30 30 30 30 29 29
32 33 34 35 38 41 44 48 51 53 55 58 59 58 58 58 57 57 57 57 58 60 60 61 63 64 65 65 63 59 55 50 47 46 45 42 41 39 38 37 37 35 33 31 29 27 25 23 20 18 17 15 12 9 8 8 10 11 11 12 12 12 14 15 15 17 19 21 23 25 26 26 26 26 27 27 28 28 29 29 30 30 30 30 30 29
31 31 32 33 34 37 40 44 48 51 54 57 59 59 59 60 59 60 59 59 59 60 61 61 63 65 65 65 65 63 59 54 50 47 45 43 42 41 40 40 39 38 36 34 32 30 28 24 22 21 20 18 15 12 10 9 9 10 11 11 11 11 12 13 14 14 16 17 19 21 23 25 25 25 25 25 26 27 27 28 28 29 29 29 29 29
32 32 33 33 34 35 38 41 44 48 52 56 58 59 60 61 61 62 62 62 61 60 61 61 63 66 66 65 66 65 61 58 53 49 46 45 44 43 43 42 42 40 39 37 35 33 30 27 25 24 22 20 19 16 12 10 10 10 10 11 11 11 11 12 13 13 14 15 16 18 20 22 23 23 24 24 24 25 25 26 26 27 28 28 28 28
33 34 35 35 35 36 38 40 42 46 50 55 58 59 60 61 62 63 64 64 63 62 61 61 63 65 66 66 66 65 63 61 58 55 51 48 47 45 45 45 44 43 41 40 38 36 33 30 28 27 25 23 21 18 15 13 11 11 11 11 10 11 10 10 11 12 12 13 14 15 17 19 20 21 22 22 23 23 23 24 24 25 26 26 26 27
32 34 36 37 38 39 40 41 43 45 48 52 56 59 60 61 63 64 65 65 64 64 63 62 63 65 66 67 67 65 64 62 60 58 54 50 49 47 47 48 47 45 44 42 41 38 35 33 32 30 28 26 24 21 18 16 14 13 12 11 11 11 10 10 10 10 11 12 13 13 14 16 17 18 19 20 21 21 22 22 22 22 23 24 24 25
32 33 35 37 39 41 43 44 45 46 48 51 55 58 60 62 63 64 65 65 65 66 66 64 64 65 67 68 68 67 65 63 61 60 56 52 51 50 50 50 49 47 46 44 43 41 38 36 35 33 31 29 26 23 21 18 17 15 13 13 12 12 11 9 9 8 9 10 11 12 13 13 15 15 16 17 18 19 20 20 20 20 20 21 22 23
32 32 34 37 39 42 44 46 47 49 50 52 55 57 59 62 63 64 65 66 66 68 68 66 65 65 66 68 68 68 67 65 63 62 60 56 53 51 52 52 50 49 47 46 46 44 41 39 38 36 34 32 29 26 23 21 20 18 16 14 14 13 12 10 9 8 7 7 9 10 11 11 12 13 14 14 15 16 18 18 19 19 18 19 19 20
33 32 33 35 38 40 43 46 49 51 53 55 57 57 60 62 64 65 66 65 66 68 69 70 68 66 66 67 68 69 69 67 65 63 62 59 56 54 53 53 52 51 50 49 48 47 44 42 40 39 38 35 32 29 26 25 23 21 18 17 16 15 13 12 10 9 8 7 7 8 9 10 10 10 11 12 13 13 14 16 16 17 17 17 17 17
32 31 31 32 35 37 40 44 48 52 55 58 60 60 62 64 66 67 67 65 66 69 71 72 71 69 68 67 68 70 70 69 67 64 62 60 58 57 56 55 54 54 53 52 51 50 48 45 43 41 40 38 35 32 30 28 26 24 22 20 18 17 15 13 12 11 10 9 7 7 7 8 9 9 9 10 10 11 11 12 13 14 14 14 15 15
31 30 28 28 30 32 34 39 44 49 53 58 62 64 67 68 69 69 69 68 68 70 72 74 73 72 70 69 69 69 70 71 69 67 63 58 56 58 58 58 57 56 56 56 54 53 51 48 46 44 42 40 38 35 33 32 30 28 26 24 21 20 18 16 14 13 12 11 10 9 8 8 8 8 8 8 9 9 9 9 10 11 11 12 12 13
29 28 26 26 27 28 30 33 37 41 47 53 59 64 69 72 73 73 73 73 72 73 75 75 74 74 73 72 71 70 71 72 71 70 63 55 55 60 60 60 60 58 58 59 57 55 54 51 49 47 45 43 41 39 37 36 34 32 30 27 26 24 22 20 17 15 14 13 12 11 10 9 8 7 7 7 7 8 8 7 8 8 8 9 9 10
28 27 26 26 27 28 29 30 32 35 39 45 51 57 64 70 75 77 78 78 77 78 78 77 76 75 75 75 74 73 73 73 73 72 65 58 59 63 61 61 63 61 60 59 57 56 55 52 50 49 47 45 44 42 40 39 37 35 33 31 30 28 26 25 22 19 17 16 15 14 13 12 10 9 7 7 7 7 7 7 6 6 6 6 6 7
27 26 26 27 29 29 29 30 30 31 33 38 44 51 57 64 70 75 79 81 82 83 82 81 78 77 77 77 76 76 76 76 75 74 71 65 63 64 63 62 63 63 61 59 56 56 56 54 52 50 49 47 46 45 44 42 40 38 36 34 32 30 29 27 25 22 19 18 17 16 15 14 13 11 9 8 7 6 6 6 6 6 6 5 5 4
27 26 27 28 30 30 30 30 30 29 30 33 38 45 52 59 64 70 76 81 84 86 87 84 80 79 79 79 78 78 77 77 76 76 77 73 66 64 64 63 63 64 63 59 55 55 57 56 53 51 51 50 49 48 47 46 43 40 38 36 34 31 30 29 27 25 23 21 20 18 17 16 15 13 12 10 8 7 6 6 6 6 7 6 5 5
27 26 27 29 30 30 31 31 29 28 28 29 33 40 47 54 60 65 71 78 83 87 89 87 84 82 82 81 81 80 79 79 78 78 79 78 72 65 64 64 65 66 64 62 58 54 55 56 55 53 52 51 50 50 50 49 46 43 40 39 37 34 33 32 30 29 27 24 22 20 19 17 16 14 13 12 11 9 8 8 7 7 8 8 8 7
28 27 27 29 29 30 31 31 30 28 26 26 29 35 42 49 56 61 66 73 80 85 89 90 88 86 85 84 83 82 81 79 80 80 79 78 75 70 67 67 68 68 66 65 62 57 56 56 55 52 50 51 52 52 52 51 49 46 44 42 40 37 36 34 33 32 29 26 24 23 21 20 18 17 15 14 13 12 11 11 10 10 9 9 10 10
29 27 27 28 29 30 31 31 31 29 27 25 25 30 37 44 51 57 63 69 75 82 87 90 90 89 87 86 84 83 82 80 80 82 82 79 74 70 70 70 70 69 68 67 64 60 58 59 57 53 50 51 54 55 54 54 53 50 48 45 43 40 39 37 35 34 32 29 28 25 24 23 21 19 17 15 15 14 14 14 13 13 13 13 13 12
29 28 28 28 29 30 31 31 31 30 28 25 24 27 34 41 47 53 60 66 72 78 84 87 89 89 88 87 85 83 82 81 80 82 85 84 77 69 69 72 71 70 69 67 66 63 61 61 61 58 55 53 55 57 58 57 56 54 51 49 45 43 41 39 37 35 33 31 30 28 27 25 23 22 19 17 17 16 16 16 16 16 17 17 17 16
29 28 27 28 29 30 31 32 32 31 30 27 24 25 31 38 44 50 56 63 69 75 80 84 86 87 86 86 86 84 82 82 82 83 85 88 83 74 71 72 72 72 71 68 67 66 64 64 65 63 61 59 58 59 60 59 58 57 55 52 48 46 44 41 38 36 34 33 32 30 29 27 25 24 22 20 20 20 19 20 19 19 20 20 20 20
29 28 27 27 28 29 31 32 33 32 31 28 25 23 28 35 41 47 52 60 66 72 77 76 78 84 85 82 85 87 85 84 83 83 85 88 89 83 77 74 72 71 72 70 67 68 67 67 67 67 67 66 64 62 62 61 60 59 57 54 51 48 46 43 41 38 37 35 34 32 30 29 28 27 25 23 22 22 23 24 24 23 23 22 22 22
29 27 27 27 28 29 30 32 33 34 32 30 26 23 26 33 39 44 50 57 63 70 73 65 60 70 78 82 86 87 87 87 86 84 85 87 91 89 84 80 76 71 72 73 70 70 71 71 70 70 70 70 68 67 65 63 62 60 58 56 54 52 49 46 44 42 40 38 36 34 33 32 31 30 29 27 26 26 27 26 26 26 25 23 23 24
28 27 26 27 27 28 29 31 33 34 33 31 27 23 23 30 36 41 48 55 60 66 71 65 57 58 66 77 90 91 86 88 89 87 86 86 89 91 88 85 83 77 73 74 74 72 73 74 73 73 73 72 70 70 68 65 63 62 60 58 57 56 52 49 47 45 42 40 38 37 36 35 33 31 30 29 29 30 29 29 28 27 27 26 25 26
28 27 26 26 27 27 28 30 32 34 34 33 30 25 22 27 34 39 44 52 58 62 68 69 68 68 70 77 91 94 87 85 89 89 89 89 89 92 91 88 88 85 78 76 77 75 73 74 76 76 75 73 71 71 69 66 64 63 62 61 60 59 56 53 49 47 44 42 39 39 38 37 34 33 32 32 32 32 32 33 32 30 30 30 30 29
28 27 26 26 26 27 28 30 32 33 33 33 31 27 22 25 31 37 41 49 56 61 67 71 73 79 85 88 93 94 88 86 88 86 87 90 90 91 93 92 92 92 86 81 81 79 75 74 76 78 78 75 72 71 69 68 67 65 64 62 61 61 59 56 52 48 46 43 42 41 41 39 37 35 35 35 35 34 34 36 37 35 33 32 33 34
29 27 26 26 26 27 28 30 31 32 33 32 31 29 24 23 29 35 40 46 54 60 67 74 76 79 87 91 93 95 92 90 90 86 86 92 92 90 93 95 95 97 95 88 86 83 79 77 76 78 79 77 75 72 70 69 69 68 65 64 63 63 61 58 54 50 46 44 44 44 44 42 40 38 37 37 37 37 37 38 39 38 36 35 36 37
29 27 27 26 26 26 28 29 31 32 32 32 31 30 26 23 27 34 38 43 51 58 65 72 76 78 81 86 91 96 96 94 94 90 88 93 95 91 92 94 97 100 99 95 92 89 85 81 79 78 79 79 78 75 72 69 70 69 67 65 64 63 63 61 56 51 48 46 45 47 48 47 44 41 39 40 40 40 40 42 41 39 40 41 40 39
29 28 27 27 26 26 27 29 31 32 32 32 31 30 28 24 25 32 37 40 46 55 61 67 73 76 76 79 87 95 99 98 98 93 88 91 96 95 92 94 97 100 101 99 97 94 90 86 82 80 79 79 79 78 75 71 70 70 69 68 65 64 63 62 58 54 51 49 49 49 50 48 45 44 43 44 46 45 44 46 45 42 43 46 44 41
29 29 28 27 26 25 27 29 30 31 32 32 31 30 29 26 24 28 35 39 43 50 57 63 69 73 75 76 81 90 98 102 102 97 89 88 96 99 96 95 97 99 102 102 100 99 95 90 86 82 80 79 80 80 78 74 71 70 71 70 69 67 65 63 62 59 56 55 55 53 51 48 47 48 48 49 51 48 45 46 47 46 48 49 46 43
30 29 29 28 26 26 27 28 30 31 32 32 31 30 30 27 25 25 30 37 42 47 54 59 64 70 74 77 79 84 93 101 104 102 95 90 95 101 100 98 97 99 102 103 101 101 99 94 89 85 82 81 81 82 81 79 75 73 72 72 71 70 68 66 66 65 62 60 60 57 53 51 51 50 50 51 52 48 42 42 45 48 51 51 50 48
30 29 28 28 27 26 27 28 29 31 31 32 31 29 29 27 25 25 27 34 41 46 51 57 62 67 72 78 82 82 88 96 102 105 103 96 95 100 102 100 99 99 101 103 102 101 100 98 93 88 85 84 83 82 83 82 79 75 74 74 73 72 72 71 70 69 66 64 63 60 58 56 55 53 51 52 54 49 42 40 43 47 51 51 51 52
29 29 28 28 27 27 28 29 29 30 31 31 31 29 28 26 25 25 27 32 38 44 48 54 61 66 69 77 85 85 86 92 99 105 107 100 96 100 103 102 101 100 100 102 102 101 100 99 95 89 85 85 85 83 83 84 83 79 76 74 74 74 75 75 73 71 69 67 66 65 63 62 61 58 54 53 55 52 47 45 47 48 51 53 54 55
28 28 28 28 27 28 28 29 29 30 31 31 31 29 28 25 24 25 27 29 34 41 48 52 58 65 68 74 84 88 88 91 96 104 108 104 98 100 103 103 102 101 100 100 101 101 100 99 97 93 87 85 85 85 84 85 86 83 80 77 75 75 77 78 76 74 72 70 69 69 69 68 67 64 59 56 58 57 52 50 52 53 54 56 58 60
28 28 28 28 27 28 28 29 29 29 30 31 31 30 28 26 23 24 26 27 31 38 46 51 55 62 68 73 80 87 91 93 95 100 106 107 102 101 103 104 103 102 101 100 100 101 101 100 100 99 95 89 86 86 85 85 86 86 85 83 80 78 79 79 79 78 76 73 71 72 72 72 71 70 65 61 61 61 58 54 54 56 56 57 59 63
28 28 28 28 27 27 28 29 29 29 30 30 31 31 29 26 23 23 24 26 30 35 42 49 54 59 65 71 77 83 90 94 96 96 101 105 106 104 103 104 103 103 102 101 100 101 101 101 102 103 102 98 92 89 86 85 85 86 87 86 84 82 81 81 80 80 78 76 74 74 73 73 74 74 71 67 64 65 64 60 57 57 58 58 58 59
29 29 29 28 27 27 28 29 28 28 29 30 31 31 30 27 23 22 22 25 28 32 38 46 51 56 61 68 74 80 85 91 95 96 97 100 104 105 105 105 104 104 103 103 102 101 102 103 103 104 105 104 100 96 92 89 87 86 87 87 87 86 85 83 81 81 81 80 78 77 75 75 76 77 76 74 71 69 69 69 65 63 62 62 61 60
29 29 28 28 27 27 28 28 28 28 29 30 31 32 31 28 24 21 21 23 26 30 35 42 48 53 57 62 69 76 81 86 91 95 97 98 100 103 105 106 105 105 105 104 103 103 102 103 104 105 106 106 106 103 101 98 94 91 88 88 89 89 88 86 85 84 85 84 82 81 79 77 78 80 81 80 78 75 73 74 74 72 71 70 69 68
29 28 28 28 27 27 27 27 27 28 28 29 31 32 32 29 25 21 20 21 23 27 31 37 44 51 54 58 63 70 77 83 87 92 96 99 99 101 104 106 106 106 106 105 104 104 103 103 104 105 106 108 108 107 106 104 102 99 95 91 89 90 91 90 89 88 88 88 87 86 83 80 80 83 85 86 84 81 78 77 77 78 77 76 74 74
28 28 27 27 27 27 27 26 27 27 28 28 30 32 32 29 25 21 19 20 22 24 28 32 39 46 52 55 58 62 69 77 84 89 94 98 99 99 100 103 106 106 107 106 106 105 104 104 104 105 106 107 109 109 109 108 106 105 103 99 94 92 92 93 92 92 91 91 91 91 90 87 85 85 87 89 89 87 84 82 80 80 80 78 77 76
28 27 27 27 27 26 26 26 26 27 27 28 30 32 31 28 24 21 19 18 20 22 25 28 33 40 48 53 55 58 62 68 76 83 89 95 99 99 99 100 103 105 107 107 107 107 106 105 105 105 106 107 108 110 110 110 108 107 107 106 102 98 95 95 96 95 95 95 95 95 95 94 91 89 90 91 92 92 89 86 83 82 82 82 80 78
26 26 26 26 26 25 26 26 26 26 26 27 29 31 30 27 24 21 19 17 17 19 22 25 29 34 41 48 53 55 58 61 67 73 80 86 93 98 99 99 100 103 106 108 108 108 108 107 106 106 106 107 108 109 110 111 110 109 109 110 109 106 102 99 99 99 99 99 99 99 99 98 96 95 94 93 93 94 92 89 85 83 84 85 84 82
Wind_Direction
235 234 235 235 236 237 236 234 231 228 226 227 227 227 226 225 224 222 220 219 218 219 220 220 219 216 214 215 215 217 218 217 212 207 208 214 212 200 194 196 187 163 141 119 113 109 99 89 83 79 72 67 69 71 70 68 66 63 60 59 59 60 60 61 62 61 61 62 62 64 67 71 75 77 78 78 80 87 94 98 101 103 103 103 103 105
236 235 234 235 235 236 236 235 232 229 227 226 226 226 226 225 224 223 221 219 218 219 220 220 219 216 213 214 216 216 216 213 209 205 204 212 217 210 199 198 199 186 169 144 120 114 109 100 91 87 81 74 72 73 72 71 69 66 63 60 60 61 62 62 62 62 61 62 63 64 67 70 72 74 76 79 81 84 91 97 101 103 105 105 105 105
238 236 235 234 234 234 234 234 233 230 228 227 226 225 225 225 224 223 221 219 217 218 220 219 218 215 212 213 215 215 215 212 208 204 203 210 219 217 207 202 204 197 183 167 141 121 114 108 102 97 92 85 78 77 75 73 71 69 66 63 61 62 63 63 63 63 62 63 64 64 66 69 72 73 74 78 81 84 87 92 97 101 104 106 107 108
240 238 236 233 232 233 233 233 232 230 228 227 227 225 225 224 224 223 222 219 216 217 219 219 218 215 212 214 216 216 216 214 209 205 203 208 218 220 212 206 206 201 191 180 163 141 123 113 109 106 104 97 88 83 79 76 73 70 68 66 63 63 65 65 65 65 64 63 64 65 66 68 71 73 74 76 79 82 85 88 91 95 99 102 105 108
241 239 237 235 233 232 232 232 231 229 227 226 226 224 223 223 223 223 222 220 217 217 218 219 218 216 213 214 218 217 216 216 212 207 204 207 215 220 216 210 209 206 198 189 179 165 145 126 115 112 111 109 101 91 85 81 77 73 69 68 66 65 66 68 68 67 66 65 65 65 67 68 70 72 74 75 77 79 83 86 88 91 94 97 100 103
242 240 238 236 234 233 231 231 231 230 228 227 226 224 222 222 222 221 222 221 219 216 217 218 217 214 211 212 215 215 214 214 213 208 206 208 213 218 217 212 210 208 202 196 189 181 168 152 136 124 119 116 112 102 93 87 82 77 72 69 68 69 69 69 70 70 68 67 66 66 67 69 70 71 73 75 76 78 80 83 86 88 90 92 95 98
243 241 240 238 236 234 232 231 230 230 229 228 227 225 223 222 221 221 221 221 220 216 215 215 214 209 205 207 211 212 211 211 211 209 208 211 214 217 217 214 211 209 206 201 196 192 184 173 165 152 137 126 120 114 104 94 88 82 76 72 70 72 73 72 72 72 71 69 68 67 68 69 70 72 73 74 76 77 79 80 82 85 88 90 93 95
244 242 240 238 237 235 234 232 231 231 229 229 229 226 224 224 222 220 220 220 219 217 214 214 212 207 201 201 206 208 209 210 210 211 213 214 213 215 216 215 213 210 208 205 200 199 194 185 180 176 164 147 132 125 118 106 95 88 81 76 73 75 77 75 74 73 72 72 70 69 68 69 71 72 73 75 76 77 79 79 80 82 85 89 92 95
246 244 241 238 236 235 234 233 232 231 230 229 230 228 225 224 223 221 220 220 219 217 215 213 212 209 204 201 202 205 207 210 211 214 216 214 210 211 213 214 214 212 210 209 205 203 199 193 188 184 177 169 152 137 130 120 107 97 89 82 77 77 79 78 77 75 73 73 72 71 70 70 71 72 74 76 77 78 79 80 81 82 84 88 92 96
248 246 242 239 236 235 234 233 232 231 230 229 230 229 226 225 224 223 221 220 219 217 216 213 212 211 209 206 204 205 209 212 214 216 215 211 207 208 211 213 214 213 211 210 210 207 203 198 193 187 183 177 165 150 141 133 123 111 101 91 83 80 81 80 78 76 74 73 72 72 71 71 71 72 74 76 78 79 80 81 82 84 86 88 92 97
251 248 244 241 237 235 233 233 232 232 231 230 230 229 227 226 224 224 222 220 219 218 216 214 212 213 213 212 210 212 214 215 216 216 213 207 206 208 211 212 213 214 212 210 212 212 208 203 197 190 188 185 179 167 155 147 138 128 118 106 94 87 85 83 80 78 76 74 73 73 72 72 72 72 73 75 77 80 81 83 84 86 88 89 92 97
255 252 249 244 239 235 233 232 231 231 230 231 231 229 228 226 224 224 223 221 220 218 217 215 214 214 214 214 214 216 217 217 217 216 213 209 208 209 210 211 212 214 214 211 211 214 212 206 200 196 193 191 190 187 175 164 154 144 135 124 111 99 93 89 84 80 78 76 74 74 73 73 73 73 73 73 76 79 81 83 85 87 90 91 92 96
259 257 254 249 243 238 235 233 231 230 230 230 230 229 228 227 225 224 224 223 222 219 218 216 215 215 215 216 217 217 217 215 215 216 215 213 211 210 210 211 211 213 215 213 212 214 214 209 204 203 199 195 195 197 192 181 170 160 149 137 127 115 106 100 94 87 82 79 77 76 75 74 74 75 75 74 74 77 80 83 86 88 91 93 95 97
260 258 257 253 249 244 239 235 231 229 229 229 229 228 228 227 225 224 223 223 223 221 218 217 216 216 215 215 217 218 217 215 213 214 215 213 212 211 211 212 210 211 214 214 213 213 214 212 210 209 205 201 200 200 200 193 184 176 166 153 140 130 119 113 108 100 92 86 81 79 78 78 76 76 77 77 76 76 78 82 85 88 92 95 98 100
258 257 256 254 252 249 245 240 235 230 228 228 228 228 227 227 226 225 223 223 223 222 219 218 218 217 216 216 217 218 218 216 214 215 216 215 214 212 211 211 211 210 212 214 213 213 212 212 213 213 210 208 205 202 202 200 193 188 182 173 158 145 133 124 120 116 107 99 92 85 82 81 79 78 78 78 79 78 78 80 84 88 92 96 100 104
257 256 254 252 251 249 247 244 241 235 229 227 228 227 227 226 225 225 224 222 222 222 220 218 218 218 216 216 216 216 217 216 214 215 216 214 213 212 209 210 210 209 211 214 214 214 212 212 213 215 214 212 209 205 203 202 200 196 192 188 179 164 151 139 130 126 122 115 107 98 91 86 83 81 80 80 80 81 81 82 83 87 92 97 101 106
260 258 255 252 250 248 246 244 243 240 235 230 228 227 226 226 225 224 224 222 221 222 221 219 218 218 216 215 215 215 215 215 214 214 213 211 211 210 208 210 210 209 210 213 215 214 213 213 214 216 216 215 212 208 205 203 203 203 201 197 191 181 172 160 148 139 133 128 121 113 105 98 92 87 84 83 82 82 83 83 85 86 89 95 101 107
267 264 260 256 252 249 247 244 242 241 238 234 231 227 225 226 225 224 223 221 220 221 221 220 219 218 217 216 215 215 215 214 213 213 212 209 209 209 209 210 211 210 211 213 214 215 213 213 214 216 217 216 214 211 208 205 205 207 207 204 198 192 188 181 170 160 150 141 132 125 119 112 106 99 93 89 86 84 84 85 86 87 89 92 98 105
275 271 267 262 257 253 249 246 243 241 239 237 234 230 226 225 224 224 223 221 220 221 221 220 219 218 217 216 215 215 215 214 212 212 213 210 209 210 210 211 211 212 212 213 214 214 214 214 213 215 217 217 215 213 211 209 208 208 210 210 207 203 199 195 190 182 174 165 151 139 132 125 119 113 106 100 94 90 87 86 86 88 89 90 94 101
283 277 273 268 263 258 254 250 245 242 240 237 235 232 229 226 224 223 223 221 219 220 221 220 219 218 216 216 215 215 214 214 212 211 212 211 210 211 212 212 212 213 213 214 213 213 214 214 214 215 217 218 216 214 213 212 211 210 211 212 213 212 208 204 201 194 188 183 174 163 151 142 135 128 120 113 106 100 94 91 89 88 89 89 90 93
288 283 277 273 269 265 260 255 249 245 241 238 236 233 230 228 225 222 221 219 218 218 220 220 219 218 216 215 215 214 214 214 212 210 210 211 211 212 213 213 212 213 214 214 213 212 213 214 214 215 216 218 217 217 215 214 213 212 211 211 214 216 215 213 209 203 197 192 187 184 177 167 157 146 138 129 120 114 106 100 96 93 91 90 89 90
291 286 280 279 277 274 270 263 255 249 244 240 237 234 231 228 226 223 220 218 217 217 218 219 218 217 216 215 214 213 213 213 212 210 207 208 210 211 212 213 212 212 214 215 214 213 213 213 214 215 216 217 218 218 218 216 214 214 212 212 213 215 217 218 216 211 206 200 195 194 193 187 180 170 159 150 141 133 124 115 108 102 98 96 93 92
291 287 283 283 284 283 280 273 265 256 248 243 238 234 232 228 226 223 221 218 216 216 217 218 217 216 216 215 213 212 212 211 211 209 206 207 211 210 209 212 214 213 213 214 215 215 214 214 216 216 216 217 218 219 219 219 216 215 214 213 214 214 216 218 218 215 212 208 203 199 199 198 194 188 180 172 165 158 149 141 132 121 113 109 104 100
290 287 286 287 288 288 286 282 274 264 255 247 240 235 232 229 225 223 221 219 216 216 216 216 215 214 215 215 213 212 212 210 210 207 205 207 210 208 208 210 213 215 214 214 216 217 217 216 217 219 218 218 219 219 220 220 219 218 217 216 217 217 218 221 222 220 218 215 212 206 201 201 200 197 195 191 188 187 183 171 164 155 145 135 130 125
289 287 287 288 289 291 290 288 282 273 263 253 243 236 231 229 225 222 220 219 217 216 216 215 213 213 214 214 213 213 211 210 209 207 206 207 207 206 207 208 212 216 215 214 215 217 217 217 218 220 220 220 221 220 220 221 220 219 218 218 219 219 221 224 226 226 224 220 218 213 209 207 205 203 202 203 203 207 212 206 197 190 183 175 171 168
288 287 286 287 289 291 293 293 289 282 271 261 249 239 232 228 225 222 220 219 217 217 216 215 212 212 213 213 212 212 211 210 209 207 207 208 207 206 206 206 211 215 214 213 214 215 216 216 217 220 222 223 223 223 222 222 221 220 220 219 219 218 220 222 226 228 226 223 221 218 216 215 214 213 212 212 213 217 224 231 231 225 215 208 204 200
289 286 285 287 288 291 294 296 295 290 280 270 257 244 234 228 225 222 220 218 218 217 216 215 213 211 212 213 213 212 211 210 209 208 207 207 207 207 207 206 208 214 214 212 214 215 215 215 216 217 221 224 224 224 224 223 223 221 221 221 219 218 219 220 223 227 227 227 227 224 222 223 222 221 220 219 221 222 227 235 243 247 243 237 231 224
288 286 286 287 289 291 294 297 300 297 289 279 266 250 237 229 225 222 220 218 217 217 217 215 213 212 212 213 213 213 211 210 210 209 207 206 205 205 206 206 206 210 213 213 213 215 215 214 213 213 215 220 222 223 223 224 224 222 221 221 221 220 220 220 222 226 226 227 229 227 226 227 227 228 229 229 230 229 228 233 240 248 253 254 251 245
286 285 285 287 290 292 294 299 302 302 298 288 275 257 240 231 226 222 219 217 216 217 217 215 214 213 212 212 213 213 212 210 209 209 208 207 205 203 203 203 205 208 211 212 213 214 214 212 212 212 212 215 218 220 222 222 223 222 221 221 221 221 221 222 223 226 227 227 227 226 227 227 228 231 234 237 240 238 234 233 234 240 247 252 255 256
284 283 284 286 290 292 295 300 303 305 303 296 285 265 245 233 227 222 219 217 216 216 216 215 214 213 212 212 213 213 212 210 209 210 209 208 207 204 201 201 203 205 208 210 211 213 213 211 211 213 213 214 216 218 220 221 222 222 221 221 221 221 221 223 223 224 226 226 226 227 229 229 230 231 232 234 238 242 245 246 246 246 245 246 249 253
282 280 282 285 289 291 295 301 304 307 307 302 294 274 251 237 229 223 219 217 215 215 215 215 215 214 212 211 212 213 212 210 208 209 210 209 208 207 203 201 201 202 206 208 208 209 211 210 211 213 215 215 216 216 217 219 221 221 221 221 220 219 220 221 222 223 223 224 225 227 229 229 231 235 235 234 237 242 249 255 259 259 253 248 248 248
279 278 281 284 288 291 296 301 305 308 308 305 299 282 257 241 231 225 220 216 215 214 211 210 213 215 213 211 210 211 212 210 208 208 209 210 210 209 207 204 201 201 204 206 205 205 208 210 211 213 215 217 218 218 217 218 218 219 220 220 218 218 218 219 220 221 221 222 223 226 227 227 231 235 238 239 243 246 248 250 254 258 256 253 251 250
277 276 279 283 287 291 296 300 304 307 308 307 302 288 263 243 233 227 222 217 214 213 209 206 206 210 211 210 209 209 210 210 209 209 209 210 210 209 208 206 204 202 202 203 203 204 206 210 211 213 215 217 217 219 219 218 218 217 217 217 217 217 218 218 218 220 221 221 222 224 225 225 227 231 236 242 249 253 251 247 245 248 251 250 247 248
276 274 277 282 286 291 295 298 302 306 308 307 304 294 270 246 235 229 224 218 213 211 208 205 206 208 208 208 208 207 208 210 210 210 209 210 210 210 208 207 205 204 202 201 203 203 204 208 211 213 215 216 217 218 219 219 218 218 218 218 219 219 219 218 218 219 221 221 221 224 226 226 226 229 234 240 246 250 252 250 247 245 247 247 243 241
273 271 275 280 285 289 293 296 299 303 307 308 306 299 279 251 236 230 225 220 213 209 206 204 207 210 209 206 206 205 204 207 210 211 210 209 210 210 209 208 206 206 205 203 203 205 204 206 211 214 215 216 216 218 219 219 219 219 219 220 221 222 221 220 219 220 221 222 223 225 228 230 230 232 236 240 244 248 251 251 250 248 248 250 248 244
271 269 273 278 283 288 291 294 297 301 305 308 307 302 288 259 239 230 226 221 214 209 207 205 208 212 210 207 206 204 203 205 209 212 212 210 209 210 210 209 208 208 209 207 205 207 206 205 208 213 215 216 216 217 218 220 220 220 220 221 222 223 223 221 220 220 220 222 225 228 229 230 231 235 239 241 245 248 250 251 250 249 249 250 251 250
269 267 271 275 281 287 290 293 296 300 305 308 307 304 294 271 245 231 226 223 217 211 208 207 209 212 212 209 207 205 204 205 208 211 212 211 209 210 211 210 209 209 211 211 209 209 209 207 207 211 214 216 217 217 218 219 221 221 221 221 222 223 222 221 220 219 218 219 224 229 230 229 231 235 238 240 240 241 245 249 249 249 248 249 252 254
267 265 269 274 279 286 289 292 295 299 304 307 308 305 297 281 256 236 227 224 220 214 211 209 210 212 212 211 209 207 206 206 206 208 210 210 210 210 210 211 210 210 212 213 213 211 210 209 208 209 212 215 216 217 218 219 220 221 222 221 222 223 223 221 220 217 216 217 221 226 228 228 231 233 235 236 235 233 238 244 247 247 247 248 252 256
264 263 268 274 279 284 288 291 294 298 303 306 309 309 301 287 267 246 231 224 221 217 213 211 210 211 211 210 209 209 208 208 207 207 208 210 210 210 210 211 211 211 212 214 215 214 212 211 210 210 211 214 216 217 217 218 219 221 222 222 222 224 224 222 220 218 216 216 220 225 226 225 227 230 232 233 233 233 238 243 244 244 244 245 247 249
261 262 267 274 278 284 287 289 292 296 301 305 309 311 306 293 274 255 238 227 222 219 215 212 210 209 209 208 208 209 210 210 210 209 208 210 211 210 211 211 212 212 213 214 215 215 215 214 213 213 214 214 216 217 218 218 218 219 221 222 221 222 224 223 221 219 217 216 218 222 223 223 225 227 230 231 231 235 243 244 243 243 242 241 243 243
261 262 268 273 278 283 287 288 291 295 299 305 309 311 308 297 279 260 243 230 224 220 217 213 210 208 208 207 207 209 211 211 211 210 210 211 211 211 211 212 212 213 213 214 215 216 216 216 216 217 217 216 216 218 219 219 218 218 220 221 221 220 222 223 222 220 219 218 219 221 222 224 226 227 228 228 229 234 241 239 237 241 242 240 241 242
261 263 268 273 278 282 286 287 290 294 299 304 310 312 309 298 280 263 247 234 226 221 218 215 211 209 208 208 207 209 211 212 212 211 210 211 211 211 211 212 213 214 214 214 215 216 217 217 217 216 216 215 215 217 219 219 219 219 219 220 221 221 222 223 223 222 222 222 222 222 223 225 228 228 228 227 226 231 237 233 230 235 240 239 240 241
263 265 268 272 277 281 285 287 289 294 300 304 309 312 311 300 282 265 251 238 228 222 218 216 213 210 209 209 209 210 211 213 213 212 211 211 212 211 212 213 214 214 215 215 216 216 217 218 217 216 215 214 214 216 218 219 220 220 220 220 222 223 223 224 224 223 223 224 224 224 225 226 227 228 229 228 227 229 233 233 230 232 237 239 239 240
264 266 268 271 276 280 283 286 289 293 299 304 309 312 312 304 287 269 255 241 230 223 219 217 215 212 211 210 211 212 213 214 215 214 213 212 213 213 212 213 214 215 215 216 216 217 218 218 218 217 217 215 213 213 215 218 219 220 221 222 224 225 224 224 225 225 225 225 225 226 227 227 228 228 229 229 230 229 230 232 232 233 235 238 239 239
266 267 269 271 275 279 281 283 287 293 298 303 307 311 312 306 291 273 258 245 233 226 221 219 217 215 213 213 213 213 215 216 217 216 215 214 214 214 214 214 215 215 216 216 217 217 218 218 219 219 219 219 216 213 213 215 218 219 220 221 223 224 224 223 224 225 226 226 226 227 228 228 228 229 229 230 232 231 229 229 231 231 232 234 236 237
268 268 269 271 274 277 280 283 287 293 298 302 307 311 312 307 295 278 263 249 237 228 222 220 219 217 215 215 214 215 216 218 219 219 217 216 215 215 215 215 216 216 216 217 217 218 218 219 219 220 220 221 221 219 216 216 217 218 219 220 221 222 223 224 224 225 226 226 226 227 228 228 228 230 231 231 233 233 232 230 230 231 231 233 235 235
268 268 269 271 273 276 279 283 287 293 297 301 306 310 311 307 297 282 267 254 241 232 225 221 220 219 217 216 216 216 217 219 220 221 220 219 217 217 216 216 217 217 218 218 218 218 219 219 220 220 221 221 222 223 222 221 220 219 219 219 220 221 223 224 224 224 225 225 226 227 227 227 227 230 232 232 233 234 234 232 232 233 235 236 237 237
269 269 269 270 272 275 278 282 286 291 295 300 305 309 311 307 298 285 271 257 245 236 228 223 220 220 219 218 217 217 218 219 220 221 222 221 220 218 218 218 218 218 219 219 220 220 220 220 220 221 221 222 223 224 225 225 225 223 221 220 220 221 223 223 224 224 224 224 224 225 226 226 226 230 233 234 234 234 235 235 234 235 236 238 239 240
268 269 269 269 272 275 277 281 285 289 294 298 304 308 310 306 299 287 274 260 248 238 232 226 222 221 221 220 219 218 218 218 220 221 223 223 223 221 219 219 219 219 220 220 221 221 221 221 222 222 222 223 223 224 226 227 227 226 225 223 222 221 222 224 224 224 224 224 224 225 225 226 227 229 232 234 235 235 236 237 237 236 236 238 240 240
268 267 266 268 271 275 277 280 285 289 292 298 304 308 309 307 301 292 279 265 252 242 235 230 226 222 221 222 222 221 220 219 219 221 222 224 224 223 221 221 220 221 221 221 221 222 222 223 223 223 223 224 224 225 226 227 228 228 227 227 225 224 223 224 224 225 224 224 225 226 226 228 229 229 231 233 235 235 236 238 239 238 237 237 237 238
266 266 266 268 271 274 277 280 284 287 291 297 304 308 309 307 303 297 287 273 259 247 238 234 230 226 224 223 223 223 223 222 221 221 222 223 224 224 223 223 222 222 222 222 222 223 223 224 224 224 225 225 225 226 226 227 228 229 228 228 228 227 225 224 225 226 226 225 226 226 228 228 229 228 229 232 234 235 235 236 237 238 238 237 236 235
Height
10902 10904 10906 10908 10911 10914 10917 10921 10925 10928 10931 10933 10935 10938 10941 10945 10948 10951 10954 10957 10961 10964 10967 10970 10974 10978 10982 10985 10988 10990 10992 10995 10996 10997 10998 10999 11000 11001 11001 11002 11004 11004 11005 11005 11004 11003 11002 11002 11001 11001 11000 11000 10998 10996 10995 10993 10991 10989 10987 10986 10984 10982 10981 10979 10977 10975 10973 10971 10968 10966 10964 10962 10961 10960 10960 10960 10959 10959 10959 10959 10959 10960 10960 10960 10961 10961
10896 10899 10901 10904 10907 10910 10912 10915 10919 10922 10925 10927 10930 10933 10936 10939 10942 10945 10948 10953 10958 10960 10962 10967 10971 10974 10978 10982 10984 10988 10990 10992 10994 10995 10995 10997 10998 10999 11000 11001 11002 11004 11004 11004 11004 11003 11003 11003 11002 11002 11002 11001 10999 10998 10997 10995 10993 10991 10990 10988 10986 10984 10983 10982 10980 10978 10976 10973 10971 10969 10967 10965 10963 10963 10962 10962 10961 10961 10961 10961 10961 10961 10962 10962 10963 10963
10891 10894 10897 10900 10902 10904 10907 10910 10913 10917 10920 10922 10924 10927 10930 10933 10936 10939 10944 10949 10952 10955 10958 10962 10967 10971 10975 10978 10981 10984 10987 10989 10991 10992 10993 10994 10996 10997 10999 11000 11001 11002 11003 11004 11004 11003 11003 11003 11003 11003 11003 11002 11001 11000 10998 10997 10995 10994 10992 10990 10989 10987 10985 10984 10982 10980 10978 10976 10974 10972 10970 10968 10966 10965 10965 10964 10964 10963 10963 10963 10963 10963 10964 10964 10964 10965
10886 10889 10891 10894 10896 10899 10901 10904 10906 10910 10913 10916 10918 10921 10924 10927 10930 10935 10939 10943 10947 10950 10953 10958 10963 10967 10971 10974 10978 10981 10983 10985 10987 10989 10991 10993 10994 10995 10997 10998 10999 11001 11002 11003 11004 11004 11003 11003 11003 11003 11003 11003 11002 11001 11000 10999 10997 10996 10994 10993 10991 10989 10987 10986 10984 10983 10981 10979 10977 10975 10973 10971 10970 10968 10968 10967 10966 10966 10965 10965 10965 10965 10966 10966 10966 10966
10880 10882 10885 10888 10891 10893 10896 10898 10900 10903 10906 10909 10911 10914 10917 10920 10925 10930 10933 10937 10942 10946 10950 10955 10960 10964 10967 10970 10973 10977 10979 10981 10984 10986 10988 10990 10992 10993 10995 10996 10998 11000 11001 11002 11003 11003 11003 11004 11004 11004 11004 11004 11004 11003 11002 11000 10999 10998 10997 10995 10994 10992 10990 10988 10986 10985 10984 10982 10980 10978 10976 10974 10973 10971 10970 10969 10969 10968 10968 10967 10967 10967 10968 10968 10968 10968
10873 10877 10880 10883 10885 10887 10889 10891 10894 10897 10901 10903 10904 10907 10911 10915 10919 10924 10928 10932 10938 10943 10948 10952 10956 10960 10963 10966 10969 10971 10974 10977 10980 10982 10985 10987 10989 10991 10993 10994 10996 10998 10999 11001 11002 11003 11003 11004 11004 11005 11005 11005 11004 11004 11003 11002 11001 11000 10999 10998 10996 10994 10993 10991 10989 10987 10986 10985 10983 10981 10979 10977 10976 10974 10973 10972 10971 10970 10970 10970 10969 10969 10969 10969 10969 10969
10868 10871 10874 10877 10879 10882 10883 10886 10888 10891 10895 10897 10899 10903 10907 10910 10914 10919 10924 10928 10933 10939 10943 10946 10951 10955 10958 10962 10964 10966 10970 10973 10975 10978 10981 10984 10987 10989 10991 10992 10994 10996 10997 10999 11000 11002 11003 11003 11004 11005 11005 11005 11005 11005 11004 11003 11002 11002 11001 11000 10999 10997 10995 10993 10992 10990 10989 10987 10986 10984 10982 10980 10979 10977 10976 10975 10974 10973 10972 10972 10972 10971 10971 10971 10971 10971
10862 10865 10868 10871 10874 10876 10878 10880 10883 10887 10890 10892 10895 10900 10904 10906 10909 10914 10919 10922 10927 10933 10937 10940 10945 10949 10953 10956 10958 10961 10965 10968 10972 10975 10978 10981 10985 10987 10988 10990 10992 10994 10996 10997 10999 11000 11002 11003 11004 11005 11005 11006 11006 11005 11005 11004 11004 11003 11002 11002 11001 10999 10998 10996 10995 10993 10991 10990 10988 10987 10985 10984 10982 10981 10979 10978 10977 10976 10975 10974 10974 10974 10973 10973 10973 10973
10856 10859 10862 10865 10867 10869 10872 10875 10878 10881 10885 10888 10891 10894 10898 10901 10904 10909 10914 10918 10923 10927 10930 10934 10939 10943 10947 10949 10952 10956 10960 10964 10968 10972 10975 10978 10982 10984 10986 10988 10990 10992 10994 10995 10997 10999 11000 11002 11003 11004 11005 11006 11006 11006 11005 11005 11004 11004 11004 11003 11003 11002 11000 10999 10997 10996 10994 10993 10991 10989 10988 10987 10985 10984 10983 10981 10980 10979 10978 10977 10977 10977 10976 10976 10975 10975
10850 10853 10856 10858 10861 10863 10866 10869 10871 10874 10879 10882 10883 10887 10892 10896 10900 10905 10909 10913 10916 10919 10921 10926 10932 10936 10939 10942 10946 10952 10956 10960 10964 10967 10971 10975 10978 10981 10983 10985 10987 10990 10992 10993 10995 10997 10999 11001 11002 11004 11005 11005 11006 11006 11006 11005 11005 11005 11005 11004 11004 11003 11002 11001 11000 10998 10997 10995 10994 10992 10991 10990 10988 10987 10986 10985 10984 10983 10982 10981 10980 10980 10979 10979 10979 10979
10845 10847 10849 10852 10855 10857 10860 10862 10865 10869 10874 10875 10876 10881 10887 10891 10896 10900 10903 10906 10909 10911 10914 10920 10925 10928 10932 10937 10943 10948 10952 10956 10959 10962 10966 10970 10974 10978 10980 10983 10985 10987 10990 10992 10993 10995 10997 10999 11001 11003 11004 11005 11005 11006 11006 11005 11005 11005 11005 11005 11005 11005 11004 11003 11002 11000 10999 10998 10997 10995 10994 10992 10991 10990 10989 10988 10987 10986 10985 10984 10984 10983 10983 10982 10982 10982
10839 10841 10843 10846 10849 10852 10854 10856 10858 10863 10866 10867 10870 10876 10880 10884 10890 10892 10895 10899 10901 10904 10909 10915 10919 10923 10927 10933 10939 10942 10945 10949 10953 10957 10961 10966 10970 10974 10977 10980 10982 10985 10988 10990 10991 10993 10995 10997 11000 11001 11003 11004 11005 11005 11006 11005 11005 11005 11005 11006 11006 11006 11005 11004 11003 11002 11001 11000 10999 10998 10997 10995 10994 10993 10992 10991 10990 10989 10989 10988 10987 10987 10986 10986 10986 10986
10834 10836 10838 10840 10843 10845 10847 10849 10852 10856 10858 10860 10864 10870 10873 10877 10882 10885 10888 10892 10894 10899 10904 10909 10914 10917 10922 10928 10932 10935 10939 10944 10949 10953 10958 10963 10966 10970 10973 10976 10979 10982 10985 10987 10989 10991 10992 10995 10998 11000 11001 11002 11003 11004 11005 11005 11005 11005 11006 11006 11006 11006 11006 11005 11004 11004 11003 11002 11002 11001 10999 10998 10997 10996 10995 10994 10993 10992 10992 10991 10990 10990 10989 10989 10989 10989
10830 10831 10832 10834 10837 10839 10840 10843 10845 10848 10851 10853 10856 10861 10865 10870 10874 10878 10881 10884 10888 10893 10899 10904 10908 10911 10917 10922 10924 10929 10935 10940 10945 10950 10954 10958 10962 10966 10970 10973 10976 10978 10981 10984 10986 10988 10990 10993 10995 10997 10999 11001 11002 11003 11004 11005 11005 11005 11006 11006 11006 11006 11006 11006 11005 11005 11004 11004 11003 11003 11001 11000 11000 10998 10997 10997 10996 10995 10994 10994 10994 10993 10993 10993 10993 10993
10825 10826 10827 10829 10830 10832 10834 10835 10837 10841 10843 10845 10849 10853 10857 10861 10866 10869 10873 10877 10882 10888 10895 10899 10902 10906 10911 10915 10919 10925 10930 10935 10940 10945 10949 10953 10957 10961 10965 10969 10972 10975 10977 10980 10982 10985 10987 10990 10992 10994 10997 10998 11000 11001 11003 11003 11004 11005 11005 11006 11006 11006 11006 11006 11006 11006 11005 11005 11004 11004 11003 11002 11002 11001 11000 10999 10998 10998 10997 10996 10996 10996 10996 10996 10996 10997
10820 10820 10821 10823 10824 10825 10826 10828 10830 10833 10836 10839 10842 10845 10849 10853 10857 10861 10866 10872 10877 10882 10887 10892 10895 10900 10905 10910 10914 10920 10924 10929 10935 10939 10944 10948 10952 10957 10961 10964 10968 10971 10974 10976 10978 10982 10985 10987 10989 10991 10993 10995 10997 10999 11001 11002 11003 11004 11005 11005 11006 11006 11006 11006 11006 11006 11006 11005 11005 11005 11004 11004 11003 11003 11003 11002 11001 11000 10999 10999 10999 10999 10999 10999 10999 11000
10814 10814 10815 10816 10817 10818 10819 10821 10823 10826 10829 10832 10834 10837 10842 10845 10849 10853 10859 10865 10870 10874 10879 10885 10888 10892 10898 10904 10908 10913 10917 10923 10929 10934 10939 10943 10947 10952 10956 10959 10963 10966 10970 10972 10975 10978 10981 10984 10986 10988 10990 10992 10994 10997 10999 11000 11001 11002 11004 11004 11005 11005 11005 11006 11006 11006 11006 11006 11006 11005 11005 11005 11005 11005 11005 11004 11003 11003 11002 11001 11001 11001 11002 11002 11002 11002
10807 10808 10808 10808 10809 10810 10811 10814 10816 10818 10821 10824 10826 10830 10835 10838 10842 10846 10850 10857 10863 10867 10871 10877 10881 10886 10892 10898 10902 10907 10912 10917 10923 10928 10934 10938 10943 10948 10951 10954 10958 10962 10966 10968 10971 10974 10977 10980 10983 10985 10987 10989 10992 10994 10996 10998 10999 11001 11002 11003 11004 11005 11005 11005 11005 11006 11006 11006 11006 11006 11006 11006 11006 11006 11006 11006 11005 11005 11004 11003 11003 11003 11004 11004 11004 11004
10799 10800 10800 10800 10801 10802 10803 10805 10808 10810 10812 10814 10818 10823 10827 10830 10834 10838 10842 10850 10856 10860 10863 10868 10873 10879 10885 10891 10897 10902 10906 10912 10917 10923 10928 10933 10938 10942 10946 10950 10954 10957 10961 10963 10967 10970 10973 10976 10979 10981 10983 10986 10988 10991 10993 10995 10997 10998 11000 11002 11003 11004 11004 11005 11005 11005 11005 11006 11006 11006 11006 11006 11006 11006 11006 11006 11006 11006 11006 11006 11005 11005 11005 11006 11006 11006
10792 10793 10793 10793 10792 10794 10795 10796 10798 10800 10802 10804 10808 10813 10818 10821 10825 10829 10835 10843 10848 10852 10855 10859 10865 10871 10877 10884 10890 10896 10901 10905 10912 10918 10923 10929 10935 10938 10941 10945 10948 10952 10955 10958 10961 10965 10968 10971 10975 10977 10980 10982 10985 10987 10989 10991 10993 10996 10998 10999 11001 11002 11003 11004 11004 11004 11005 11005 11005 11005 11006 11006 11007 11007 11007 11007 11007 11007 11008 11008 11008 11008 11007 11007 11007 11007
10786 10786 10786 10786 10785 10786 10787 10787 10788 10789 10791 10794 10797 10802 10806 10810 10815 10821 10827 10834 10839 10842 10845 10850 10857 10864 10871 10876 10882 10889 10894 10899 10906 10912 10919 10928 10933 10934 10935 10938 10942 10946 10949 10952 10956 10960 10963 10966 10969 10972 10975 10978 10981 10984 10985 10987 10989 10992 10994 10996 10998 11000 11001 11002 11002 11003 11003 11003 11004 11005 11005 11006 11006 11007 11007 11007 11007 11008 11008 11009 11009 11009 11009 11009 11009 11009
10780 10779 10780 10780 10779 10779 10779 10778 10779 10780 10781 10783 10786 10790 10793 10798 10804 10810 10816 10823 10828 10831 10835 10841 10849 10856 10862 10867 10873 10880 10886 10892 10899 10906 10916 10925 10924 10923 10927 10931 10936 10940 10943 10946 10950 10954 10958 10961 10964 10967 10970 10973 10977 10979 10981 10983 10985 10987 10990 10992 10994 10996 10998 11000 11000 11001 11001 11002 11002 11003 11004 11005 11006 11006 11007 11007 11007 11008 11008 11009 11009 11010 11010 11010 11010 11010
10774 10774 10774 10774 10773 10773 10772 10771 10771 10772 10772 10773 10775 10778 10781 10785 10791 10797 10803 10811 10817 10821 10826 10832 10840 10848 10853 10858 10865 10870 10876 10884 10891 10900 10911 10913 10909 10912 10920 10925 10929 10934 10937 10941 10946 10950 10953 10957 10960 10963 10966 10969 10972 10975 10977 10979 10982 10984 10986 10989 10990 10992 10994 10996 10997 10998 10999 11000 11000 11001 11002 11003 11004 11005 11005 11006 11006 11007 11008 11008 11009 11009 11010 11010 11011 11011
10769 10769 10769 10768 10767 10767 10766 10765 10764 10764 10764 10765 10766 10768 10770 10773 10778 10784 10791 10798 10805 10810 10815 10822 10831 10839 10844 10849 10856 10861 10867 10875 10882 10890 10897 10896 10896 10905 10913 10918 10923 10928 10932 10937 10941 10945 10948 10952 10956 10959 10962 10965 10968 10971 10973 10975 10978 10980 10983 10985 10988 10990 10992 10993 10995 10996 10997 10998 10998 10999 11000 11001 11002 11003 11004 11004 11005 11006 11007 11007 11008 11008 11009 11010 11010 11010
10765 10764 10764 10763 10762 10761 10760 10758 10758 10757 10757 10757 10758 10759 10761 10763 10767 10772 10779 10786 10793 10798 10803 10812 10822 10830 10834 10839 10847 10852 10859 10867 10873 10879 10882 10883 10891 10900 10906 10912 10917 10921 10926 10932 10936 10939 10943 10948 10952 10955 10958 10961 10963 10966 10968 10970 10973 10976 10979 10982 10985 10987 10989 10991 10993 10994 10995 10995 10996 10997 10998 10999 11000 11001 11002 11002 11003 11004 11005 11006 11006 11007 11007 11008 11009 11010
10760 10759 10759 10758 10757 10756 10754 10752 10751 10751 10751 10751 10750 10751 10753 10755 10758 10762 10769 10776 10782 10787 10794 10803 10813 10820 10824 10830 10837 10843 10850 10858 10864 10869 10872 10877 10887 10893 10898 10905 10910 10914 10920 10926 10930 10934 10938 10942 10946 10949 10953 10956 10959 10961 10963 10966 10969 10972 10975 10978 10980 10983 10985 10987 10989 10990 10991 10993 10994 10995 10996 10997 10998 10999 11000 11001 11001 11002 11003 11004 11005 11005 11006 11006 11007 11008
10755 10755 10754 10753 10752 10751 10748 10746 10745 10745 10744 10744 10744 10744 10746 10747 10750 10754 10760 10766 10772 10777 10785 10794 10803 10810 10815 10821 10828 10834 10841 10849 10855 10860 10864 10870 10877 10884 10890 10897 10902 10907 10913 10919 10924 10928 10932 10936 10940 10943 10947 10950 10953 10956 10958 10961 10964 10967 10970 10973 10975 10978 10980 10982 10984 10985 10988 10990 10992 10993 10994 10995 10996 10997 10998 10998 10999 11000 11002 11003 11003 11004 11004 11005 11005 11006
10750 10750 10749 10748 10747 10745 10743 10742 10740 10739 10739 10738 10738 10738 10739 10740 10743 10746 10752 10758 10763 10769 10776 10785 10794 10801 10807 10814 10821 10828 10836 10843 10849 10853 10858 10862 10867 10874 10882 10889 10894 10900 10906 10912 10917 10922 10926 10930 10933 10936 10939 10942 10945 10949 10952 10955 10957 10961 10964 10967 10970 10973 10975 10977 10980 10981 10984 10987 10988 10989 10991 10992 10993 10995 10996 10997 10997 10998 10999 11000 11001 11002 11003 11003 11003 11004
10745 10745 10744 10743 10741 10739 10738 10737 10735 10734 10733 10732 10732 10732 10733 10734 10736 10739 10745 10750 10756 10761 10768 10777 10786 10794 10802 10810 10817 10824 10831 10837 10843 10847 10851 10855 10860 10868 10875 10881 10887 10892 10898 10905 10910 10915 10919 10923 10926 10928 10931 10934 10937 10942 10945 10948 10951 10955 10958 10961 10965 10968 10970 10973 10975 10978 10980 10983 10984 10986 10987 10988 10990 10992 10993 10994 10995 10996 10997 10998 10999 11000 11000 11001 11002 11002
10741 10740 10739 10738 10736 10734 10732 10731 10730 10729 10728 10727 10727 10727 10727 10728 10730 10734 10738 10743 10748 10754 10761 10771 10781 10789 10798 10807 10814 10820 10825 10831 10836 10841 10845 10850 10855 10861 10868 10874 10880 10885 10891 10898 10903 10908 10912 10915 10918 10921 10923 10926 10929 10933 10937 10941 10944 10948 10951 10955 10959 10962 10965 10968 10971 10974 10976 10978 10980 10982 10983 10985 10986 10988 10989 10991 10992 10993 10994 10994 10996 10996 10997 10998 10999 11000
10736 10735 10735 10733 10731 10729 10727 10725 10724 10724 10723 10722 10722 10722 10722 10723 10725 10728 10732 10736 10741 10746 10756 10768 10776 10782 10791 10800 10807 10812 10817 10823 10829 10833 10839 10844 10849 10855 10860 10867 10873 10878 10884 10890 10896 10901 10904 10906 10909 10913 10916 10919 10922 10925 10929 10933 10937 10941 10945 10949 10953 10956 10959 10963 10966 10969 10971 10973 10975 10977 10979 10980 10983 10984 10986 10987 10988 10989 10990 10991 10992 10993 10994 10995 10995 10996
10731 10730 10730 10729 10727 10724 10723 10721 10719 10718 10717 10717 10717 10717 10717 10718 10720 10723 10725 10729 10733 10739 10749 10759 10765 10770 10780 10789 10797 10803 10808 10814 10819 10824 10831 10837 10842 10847 10853 10860 10866 10871 10877 10883 10889 10892 10894 10896 10900 10905 10909 10912 10916 10919 10922 10926 10930 10934 10938 10942 10946 10950 10954 10957 10960 10963 10965 10967 10970 10972 10973 10975 10977 10980 10982 10983 10984 10986 10987 10988 10989 10990 10991 10992 10992 10992
10726 10726 10725 10724 10722 10720 10718 10717 10714 10713 10712 10711 10711 10712 10712 10713 10714 10717 10720 10722 10726 10732 10740 10747 10749 10754 10763 10772 10781 10791 10798 10805 10810 10815 10820 10827 10833 10840 10846 10852 10859 10864 10870 10875 10880 10884 10886 10888 10892 10897 10901 10906 10909 10913 10917 10921 10924 10928 10931 10935 10939 10943 10947 10950 10953 10956 10959 10962 10964 10966 10967 10969 10971 10973 10977 10979 10981 10982 10983 10984 10985 10986 10987 10988 10988 10989
10721 10721 10721 10720 10718 10716 10714 10713 10710 10709 10707 10706 10706 10707 10707 10708 10709 10712 10714 10717 10721 10726 10732 10737 10738 10741 10747 10755 10765 10776 10787 10796 10802 10807 10811 10816 10823 10830 10838 10844 10850 10856 10861 10866 10871 10875 10878 10881 10884 10889 10894 10899 10902 10906 10911 10915 10919 10922 10926 10929 10933 10937 10941 10944 10948 10951 10954 10957 10959 10961 10963 10965 10966 10968 10970 10972 10974 10976 10978 10980 10981 10982 10983 10984 10984 10984
10716 10716 10716 10715 10713 10712 10711 10709 10707 10705 10703 10702 10701 10701 10702 10702 10703 10706 10709 10711 10715 10719 10724 10727 10729 10731 10737 10745 10755 10765 10777 10786 10792 10797 10801 10806 10813 10820 10828 10836 10841 10846 10851 10856 10862 10866 10870 10874 10877 10881 10886 10891 10895 10900 10905 10909 10913 10916 10921 10925 10928 10931 10935 10939 10943 10946 10949 10952 10954 10956 10958 10960 10962 10964 10964 10965 10966 10969 10972 10974 10976 10977 10978 10980 10979 10979
10711 10711 10712 10711 10709 10708 10707 10705 10703 10702 10700 10699 10697 10695 10696 10697 10698 10699 10702 10705 10709 10713 10716 10718 10721 10725 10732 10740 10748 10757 10765 10772 10779 10784 10789 10795 10803 10810 10818 10825 10832 10836 10841 10846 10851 10856 10861 10865 10868 10873 10878 10883 10888 10893 10898 10903 10906 10910 10915 10919 10922 10925 10930 10934 10937 10941 10944 10947 10950 10952 10953 10955 10956 10958 10959 10960 10960 10962 10965 10968 10969 10971 10973 10974 10973 10972
10706 10707 10707 10706 10705 10704 10702 10701 10699 10697 10696 10695 10693 10691 10690 10691 10692 10693 10695 10698 10703 10707 10710 10713 10716 10721 10727 10734 10741 10747 10753 10758 10764 10769 10775 10784 10792 10800 10807 10814 10820 10826 10831 10836 10841 10846 10851 10856 10860 10864 10869 10874 10879 10885 10891 10896 10900 10904 10909 10912 10915 10919 10924 10928 10932 10936 10939 10942 10945 10946 10946 10948 10949 10951 10953 10954 10954 10956 10959 10961 10963 10965 10966 10965 10965 10966
10701 10702 10702 10702 10701 10700 10698 10696 10695 10693 10692 10690 10689 10686 10685 10685 10686 10688 10690 10693 10697 10701 10704 10707 10711 10716 10722 10728 10733 10738 10743 10747 10751 10757 10765 10774 10782 10789 10795 10802 10808 10815 10820 10825 10830 10835 10841 10846 10851 10856 10861 10866 10871 10877 10883 10888 10893 10897 10902 10905 10909 10913 10917 10922 10926 10929 10932 10935 10937 10937 10938 10941 10943 10944 10946 10947 10947 10949 10951 10953 10956 10958 10958 10958 10959 10960
10696 10696 10697 10697 10696 10696 10694 10692 10690 10688 10687 10686 10684 10682 10680 10680 10681 10682 10685 10688 10691 10694 10697 10700 10704 10709 10715 10720 10725 10729 10734 10739 10745 10751 10759 10765 10772 10779 10785 10791 10797 10804 10809 10814 10819 10825 10831 10837 10843 10849 10854 10859 10863 10869 10875 10880 10885 10890 10894 10898 10902 10905 10910 10915 10919 10921 10924 10927 10928 10928 10930 10933 10935 10936 10938 10939 10940 10942 10944 10946 10949 10951 10951 10951 10953 10954
10691 10691 10691 10691 10691 10691 10690 10688 10686 10684 10682 10681 10680 10678 10676 10675 10676 10677 10680 10683 10684 10687 10690 10693 10697 10702 10707 10712 10717 10721 10726 10732 10739 10746 10752 10757 10762 10770 10777 10782 10787 10792 10797 10804 10810 10817 10824 10830 10837 10843 10849 10853 10857 10862 10868 10873 10878 10882 10886 10890 10894 10898 10902 10906 10910 10912 10915 10917 10919 10920 10923 10926 10927 10928 10930 10932 10934 10936 10938 10940 10941 10942 10943 10945 10946 10948
10686 10686 10686 10686 10686 10686 10685 10684 10682 10680 10678 10677 10677 10675 10673 10671 10671 10672 10674 10675 10677 10680 10684 10687 10690 10694 10699 10705 10709 10713 10718 10724 10731 10737 10743 10748 10754 10762 10769 10775 10779 10783 10789 10795 10803 10810 10816 10823 10830 10837 10843 10848 10853 10857 10862 10867 10871 10875 10879 10882 10886 10890 10893 10896 10900 10904 10908 10910 10912 10914 10916 10918 10919 10921 10922 10924 10927 10929 10931 10933 10934 10934 10935 10938 10939 10941
10681 10682 10682 10682 10681 10681 10680 10679 10677 10675 10674 10673 10672 10671 10669 10667 10666 10666 10667 10669 10671 10675 10678 10681 10684 10688 10692 10697 10701 10705 10711 10716 10721 10726 10733 10740 10747 10754 10761 10767 10772 10777 10782 10789 10796 10803 10809 10816 10824 10831 10837 10842 10847 10851 10855 10860 10864 10868 10871 10875 10879 10882 10885 10888 10892 10896 10900 10903 10906 10908 10909 10910 10912 10914 10915 10917 10919 10921 10923 10925 10927 10927 10927 10929 10931 10933
10676 10677 10677 10677 10677 10676 10675 10674 10672 10671 10669 10668 10668 10667 10665 10663 10661 10660 10661 10663 10666 10669 10671 10675 10679 10682 10685 10690 10695 10699 10703 10708 10712 10717 10725 10733 10741 10747 10752 10759 10765 10771 10777 10784 10791 10797 10803 10809 10816 10823 10828 10833 10838 10843 10847 10852 10856 10860 10864 10868 10871 10874 10877 10880 10884 10888 10892 10895 10898 10901 10902 10903 10904 10906 10908 10910 10911 10913 10915 10917 10919 10919 10920 10921 10922 10923
10671 10672 10672 10673 10672 10672 10670 10669 10668 10666 10665 10664 10663 10662 10660 10658 10656 10656 10657 10658 10660 10663 10665 10668 10672 10676 10679 10683 10688 10692 10697 10701 10705 10711 10719 10727 10734 10739 10745 10751 10757 10764 10771 10777 10782 10788 10794 10800 10806 10812 10817 10823 10828 10833 10838 10842 10847 10852 10856 10859 10863 10866 10869 10872 10876 10880 10883 10887 10890 10892 10894 10896 10896 10898 10900 10902 10903 10905 10907 10909 10910 10911 10912 10913 10913 10914
10667 10667 10668 10668 10668 10667 10666 10664 10663 10662 10661 10660 10659 10657 10656 10654 10652 10651 10652 10653 10655 10657 10659 10662 10666 10670 10674 10677 10682 10687 10691 10695 10700 10705 10712 10719 10726 10731 10737 10743 10750 10756 10762 10767 10772 10778 10784 10790 10796 10801 10807 10812 10818 10823 10828 10833 10838 10842 10846 10850 10854 10857 10860 10863 10867 10870 10874 10878 10881 10884 10886 10888 10889 10890 10892 10894 10895 10897 10899 10901 10902 10903 10904 10905 10905 10907
10662 10663 10663 10663 10663 10663 10661 10660 10659 10658 10657 10655 10654 10653 10651 10650 10648 10647 10647 10648 10649 10651 10654 10657 10660 10664 10668 10672 10676 10680 10685 10689 10693 10699 10705 10711 10718 10724 10730 10735 10741 10747 10752 10758 10763 10769 10774 10780 10785 10791 10796 10802 10807 10812 10817 10822 10827 10832 10835 10839 10843 10847 10850 10854 10858 10861 10865 10868 10871 10874 10877 10879 10880 10882 10883 10885 10887 10889 10891 10892 10894 10895 10896 10897 10898 10899
10657 10658 10658 10659 10659 10658 10657 10655 10654 10653 10652 10651 10649 10648 10647 10645 10644 10643 10643 10643 10644 10646 10648 10651 10653 10657 10661 10666 10670 10674 10678 10682 10687 10692 10697 10703 10710 10716 10722 10728 10733 10739 10744 10749 10755 10760 10765 10771 10776 10781 10786 10791 10796 10801 10806 10810 10815 10820 10825 10829 10832 10836 10840 10844 10847 10851 10854 10858 10861 10864 10867 10869 10871 10873 10874 10876 10878 10880 10881 10883 10884 10886 10887 10888 10889 10890
10652 10653 10654 10654 10654 10654 10652 10651 10650 10649 10648 10647 10645 10644 10642 10641 10639 10639 10638 10639 10639 10641 10643 10645 10648 10651 10654 10659 10663 10667 10671 10675 10680 10684 10689 10695 10701 10707 10714 10719 10725 10731 10736 10741 10746 10751 10757 10762 10767 10771 10776 10781 10786 10790 10795 10799 10804 10809 10813 10818 10822 10826 10829 10833 10837 10840 10843 10847 10850 10853 10856 10859 10861 10863 10864 10866 10868 10870 10872 10873 10875 10876 10878 10879 10880 10881
10648 10649 10649 10649 10649 10649 10648 10647 10646 10645 10644 10643 10641 10639 10638 10636 10635 10634 10634 10634 10635 10636 10638 10640 10642 10645 10648 10652 10656 10660 10664 10668 10672 10676 10681 10686 10692 10699 10706 10712 10717 10722 10727 10732 10737 10742 10747 10753 10758 10762 10767 10771 10775 10779 10784 10788 10793 10798 10802 10807 10811 10815 10819 10822 10825 10829 10832 10835 10838 10842 10844 10847 10850 10853 10855 10856 10858 10860 10861 10863 10865 10866 10868 10869 10871 10872
10644 10645 10645 10645 10645 10645 10644 10643 10642 10641 10640 10639 10637 10635 10634 10632 10631 10630 10629 10630 10630 10631 10633 10635 10637 10640 10642 10645 10649 10653 10657 10661 10665 10668 10672 10677 10682 10690 10697 10703 10708 10713 10718 10723 10728 10732 10737 10743 10748 10753 10757 10761 10765 10769 10773 10777 10781 10786 10791 10795 10800 10804 10808 10811 10814 10817 10820 10823 10826 10829 10832 10835 10838 10841 10844 10845 10847 10849 10851 10853 10854 10856 10858 10859 10861 10862
10640 10640 10641 10641 10641 10640 10639 10638 10638 10637 10636 10635 10634 10632 10630 10628 10627 10626 10625 10625 10626 10627 10629 10630 10632 10634 10637 10639 10643 10646 10650 10654 10657 10661 10665 10669 10674 10681 10687 10693 10699 10704 10708 10713 10718 10723 10727 10733 10738 10742 10747 10751 10755 10759 10762 10766 10770 10774 10779 10783 10787 10791 10795 10799 10802 10805 10808 10811 10814 10817 10820 10823 10826 10829 10832 10834 10836 10838 10840 10842 10844 10845 10847 10848 10850 10851